(Global) Earthquake at 2023-02-01 10:44:43 in MINDANAO, PHILIPPINES Latitude 7.59 Longitude 126.43 , at a depth of 2 km Magnitude 6.0
Global alerts
Previous warnings
Time Mag Region Lat Lng Adancime Sursa Raport
2023-02-01 10:44:43 6.0 MINDANAO, PHILIPPINES 7.59 126.43 2 EMSC Detalii
2023-01-29 23:49:37 5.8 SOUTHERN XINJIANG, CHINA 40.02 82.35 10 EMSC Detalii
2023-01-28 19:15:18 5.8 HALMAHERA, INDONESIA 1.93 128.35 134 EMSC Detalii
2023-01-28 18:14:49 5.7 NORTHWESTERN IRAN 38.40 45.14 43 EMSC Detalii
2023-01-27 20:25:31 5.6 LEYTE, PHILIPPINES 10.82 125.52 100 EMSC Detalii
2023-01-26 10:45:50 5.6 KERMADEC ISLANDS, NEW ZEALAND -30.24 -178.74 100 EMSC Detalii
2023-01-26 04:23:58 5.6 MOLUCCA SEA 2.81 127.11 100 EMSC Detalii
2023-01-25 12:37:05 6.0 EASTERN MEDITERRANEAN SEA 35.76 28.62 20 EMSC Detalii
2023-01-24 18:36:59 6.2 SANTIAGO DEL ESTERO, ARGENTINA -26.82 -63.20 611 EMSC Detalii
2023-01-24 08:58:30 5.6 NEPAL 29.63 81.68 5 EMSC Detalii
2023-01-24 02:13:19 5.6 MOLUCCA SEA 2.81 127.05 60 EMSC Detalii
2023-01-20 22:09:41 6.6 SANTIAGO DEL ESTERO, ARGENTINA -26.44 -62.89 400 EMSC Detalii
2023-01-20 11:23:38 6.3 GUADELOUPE REGION, LEEWARD ISL. 16.27 -61.88 200 EMSC Detalii
2023-01-18 06:06:15 7.2 MOLUCCA SEA 2.72 127.02 68 EMSC Detalii
2023-01-18 00:34:45 6.0 SULAWESI, INDONESIA -0.09 123.35 150 EMSC Detalii
2023-01-16 04:49:53 5.8 BONIN ISLANDS, JAPAN REGION 28.93 139.38 420 EMSC Detalii
2023-01-15 22:29:59 6.2 NORTHERN SUMATRA, INDONESIA 1.84 98.10 12 EMSC Detalii
2023-01-12 06:19:10 6.2 COQUIMBO, CHILE -30.57 -71.46 60 EMSC Detalii
2023-01-11 16:17:51 5.6 SOUTHERN EAST PACIFIC RISE -49.97 -114.10 33 EMSC Detalii
2023-01-11 08:40:02 5.8 VANUATU -14.84 166.74 80 EMSC Detalii
2023-01-09 17:47:35 7.7 KEP. TANIMBAR REGION, INDONESIA -7.22 130.08 97 EMSC Detalii
2023-01-08 12:32:42 6.9 VANUATU -14.95 166.81 14 EMSC Detalii
2023-01-06 11:52:35 5.7 SOUTH OF FIJI ISLANDS -24.70 -179.28 544 EMSC Detalii
2023-01-06 05:04:39 5.7 SOUTH SANDWICH ISLANDS REGION -58.75 -23.41 10 EMSC Detalii
2023-01-05 14:25:53 5.7 HINDU KUSH REGION, AFGHANISTAN 36.51 70.82 191 EMSC Detalii
2023-01-03 21:52:14 5.6 SOUTH SANDWICH ISLANDS REGION -57.75 -25.22 80 EMSC Detalii
2023-01-03 18:19:30 5.6 CENTRAL MID-ATLANTIC RIDGE 0.66 -29.10 33 EMSC Detalii
2023-01-03 14:53:34 5.6 BALLENY ISLANDS REGION -65.63 178.76 2 EMSC Detalii
2023-01-01 18:26:43 5.8 SOUTHERN EAST PACIFIC RISE -55.84 -123.81 10 EMSC Detalii
2022-12-31 03:31:43 5.6 ANTOFAGASTA, CHILE -23.06 -68.95 97 EMSC Detalii
Regional Alerts
Local previous warnings
Time Mag Region Lat Lng Adancime Details
2022-11-23 01:08:15 UTC Mw 6.1 WESTERN TURKEY 40.82 30.99 11 f -
2022-11-03 04:50:25 UTC Mw 5.1 ROMANIA 45.49 26.52 149 f -
2022-09-27 14:08:34 UTC Mw 5.3 EASTERN TURKEY 40.72 42.89 10 f -
2022-02-13 18:25:56 UTC Mw 5.4 ARMENIA 41.14 43.99 10 f -
2021-11-19 12:40:53 UTC Mw 5.2 EASTERN TURKEY 39.81 41.92 5 f -
2019-09-26 10:59:25 UTC Mw 5.7 WESTERN TURKEY 40.87 28.19 7 f -
2018-10-28 00:38:10 UTC Mw 5.5 ROMANIA 45.60 26.40 151 f -
2017-05-11 17:58:01 UTC mb 5.0 EASTERN TURKEY 40.07 40.71 3 f -
2016-12-27 23:20:56 UTC Mw 5.6 ROMANIA 45.72 26.61 91 f -
2016-10-15 08:18:33 UTC Mw 5.1 BLACK SEA 42.20 30.69 10 -
2016-09-23 23:11:20 UTC Mw 5.7 ROMANIA 45.71 26.62 92 f -
2014-11-22 19:14:17 UTC Mw 5.6 ROMANIA 45.87 27.16 39 f -
2013-10-06 01:37:21 UTC Mw 5.3 ROMANIA 45.64 26.69 134 -
2013-05-28 00:09:52 UTC mb 5.2 GEORGIA (SAK'ART'VELO) 43.22 41.58 2 -
2012-12-25 22:44:32 UTC Mw 5.4 BLACK SEA, OFFSHORE GEORGIA 42.54 40.94 2 -
2012-12-23 13:31:40 UTC Mw 5.7 BLACK SEA, OFFSHORE GEORGIA 42.58 40.98 10 -
2012-06-07 20:54:26 UTC Mw 5.1 WESTERN TURKEY 40.85 27.92 14 f -
2011-09-22 03:22:36 UTC Mw 5.5 EASTERN TURKEY 39.79 38.84 5 -
2011-07-25 17:57:21 UTC Mw 5.0 WESTERN TURKEY 40.80 27.75 16 f -
2011-01-19 09:17:49 UTC mb 5.3 GEORGIA (SAK'ART'VELO) 42.01 42.60 2 -
2010-08-12 02:23:04 UTC Mw 4.5 WESTERN TURKEY 39.66 27.61 2 -
2009-09-07 22:41:36 UTC Mw 5.9 GEORGIA (SAK'ART'VELO) 42.66 43.42 10 -
2009-04-25 17:18:48 UTC mb 5.3 ROMANIA 45.70 26.63 96 -
2008-05-07 08:00:21 UTC mb 5.0 UKRAINE 45.36 30.88 10 -
2006-02-06 04:08:00 UTC mb 5.0 GEORGIA (SAK'ART'VELO) 42.64 43.52 10 -
2005-12-13 12:14:44 UTC mb 5.0 ROMANIA 45.78 26.79 144 -
2005-06-18 15:16:40 UTC mb 5.0 ROMANIA 45.79 26.91 135 -
2005-05-14 01:53:20 UTC mb 5.1 ROMANIA 45.66 26.47 144 -
2004-10-27 20:34:32 UTC Mw 6.0 ROMANIA 45.83 26.77 76 -
2004-10-03 09:02:01 UTC mb 5.0 UKRAINE-ROMANIA BORDER REGION 45.16 29.09 2 -

Live Video Mangalia

Very Low Warning! (global)

Event report
2023-02-01 10:44:43 magnitude 6.0

Detalii (EMSC)

Very Low Warning! (local)

Weather data
Station Absolute Pressure (hPa) Int Temperature (C) Int Moisture (%) Ext Temperature (C) Ext Moisture (%) Wind speed (km / h) Wind Direction (degrees) Rainfall (mm)
Eforie AbsP InTmC InH% OTmpC OH% WKmh WDir TRNmm
Water level data - BLACK SEA

Mangalia

Denumire Valoare
Time 21 Jun 2016 07:32:06
Lev RAD(m) -7.69
Forecast30 (m) -7.7
Forecast300 (m) -7.7
Rms (m) 0.02
Alert Signal (m) 0
Alert (-) 0
Battery (V) 13.14
Panel (V) -7.7
Sensor Temp (C) 35.9
Temperature (C) 40.2

View Raw Data »

View Raw Plots »

Constanta

Name Value
Time 21 Jun 2016 07:32:06
Lev RAD(m) -7.69
Forecast30 (m) -7.7
Forecast300 (m) -7.7
Rms (m) 0.02
Alert Signal (m) 0
Alert (-) 0
Battery (V) 13.14
Panel (V) -7.7
Sensor Temp (C) 35.9
Temperature (C) 40.2

View Raw Data »

View Raw Plots »

View Plot »

Sulina

Name Value
Time 21 Jun 2016 07:32:06
Lev RAD(m) -7.69
Forecast30 (m) -7.7
Forecast300 (m) -7.7
Rms (m) 0.02
Alert Signal (m) 0
Alert (-) 0
Battery (V) 13.14
Panel (V) -7.7
Sensor Temp (C) 35.9
Temperature (C) 40.2

View Raw Data »

View Raw Plots »